Regional Weather Roundup
Issued by NWS State College, PA

Home | Current Version | Previous Version | Text Only | Print | Product List | Glossary Off
Versions: 1 2 3 4 5 6 7 8 9 10 11 12 13 14 15 16 17 18 19 20 21 22 23 24 25 26 27 28 29 30 31 32 33 34 35 36 37 38 39 40 41 42 43 44 45 46 47 48 49 50

000
ASUS41 KCTP 300303
RWRCTP

REGIONAL WEATHER ROUNDUP
NATIONAL WEATHER SERVICE STATE COLLEGE PA
1100 PM EDT FRI MAY 29 2015

Note: "fair" indicates few or no clouds below 12,000 feet with no
significant weather and/or obstructions to visibility.

* = STATION THAT DOES NOT REPORT PRECIPITATION /E.G. RAIN...SNOW...ETC/
    THUNDER OR FOG.

PAZ002>004-007>009-013>016-020>023-029>032-300400-
WESTERN PENNSYLVANIA

CITY           SKY/WX    TMP DP  RH WIND       PRES   REMARKS
ERIE           PTCLDY    74  63  68 S14       30.06S
MEADVILLE      LGT RAIN  70  63  78 VRB6      30.12S
FRANKLIN*      PTCLDY    66  61  82 S10       30.15F
NEW CASTLE     FAIR      71  68  90 CALM      30.13S
BEAVER COUNTY  NOT AVBL
BUTLER*        PTCLDY    68  64  88 S6        30.16S
PITTSBURGH INT PTCLDY    73  64  73 S6        30.14S
PITTSBURGH     CLEAR     70  62  76 S6        30.14S
INDIANA*       CLEAR     70  66  88 S6G12     30.20S
LATROBE        NOT AVBL
WASHINGTON CO* CLEAR     66  63  88 S3        30.16S
$$

PAZ004>006-010>012-017>019-024>028-033>037-041-042-045-046-049>053-300400-
CENTRAL PENNSYLVANIA

CITY           SKY/WX    TMP DP  RH WIND       PRES   REMARKS
BRADFORD       MOCLDY    67  63  87 S6        30.18S
DUBOIS         MOCLDY    69  65  86 SE5       30.17F
CLEARFIELD     LGT RAIN  67  66  97 N5        30.18F VSB 1/4
JOHNSTOWN      CLEAR     67  63  87 S7        30.21F
ALTOONA        PTCLDY    71  64  78 SW6       30.21S
STATE COLLEGE  MOCLDY    74  64  70 S6        30.18F
WILLIAMSPORT   MOCLDY    78  63  59 SE3       30.15S
SELINSGROVE    CLOUDY    76  66  71 S5        30.18S
FT INDIANTOWN  MOCLDY    75  67  75 SW5       30.20R
CAPITAL CITY   MOCLDY    76  66  71 SE10      30.18S
HARRISBURG     MOCLDY    76  66  71 S6        30.18S
YORK           MOCLDY    73  67  81 CALM      30.20S
$$

PAZ038>040-043-044-047-048-054-055-060>062-067>071-300400-
EASTERN PENNSYLVANIA

CITY           SKY/WX    TMP DP  RH WIND       PRES   REMARKS
SCRANTON       PTCLDY    75  60  59 S6        30.19F
MOUNT POCONO   MOCLDY    67  58  72 SE9       30.25R
ALLENTOWN      MOCLDY    76  63  64 S5        30.21R
QUAKERTOWN*    MOCLDY    72  63  73 CALM      30.23S
READING        MOCLDY    75  65  70 S7        30.19S
LANCASTER      MOCLDY    74  66  76 S8        30.20S
COATESVILLE    MOCLDY    68  66  94 SE3       30.24S
POTTSTOWN      MOCLDY    72  66  81 VRB5      30.23S
BLUE BELL      PTCLDY    73  64  73 SE5       30.22S
DOYLESTOWN     PTCLDY    69  61  75 VRB5      30.22F
WILLOW GROVE   NOT AVBL
NORTH PHILA    PTCLDY    72  60  66 S3        30.24F
PHILADELPHIA   MOCLDY    73  63  70 S5        30.23S
$$


USA.gov is the U.S. government's official web portal to all federal, state and local government web resources and services.